Home   Weather   Sandnes   Past weeks

Flag for Norway Past Weather in Sandnes, Norway — Yesterday and Last 2 Weeks

Now
55 °F

Broken clouds.


Feels Like: 53 °F
Forecast: 58 / 66 °F
Wind: 8 mph from Northwest

Location: Stavanger / Sola

Current Time: Jul 21, 2017 at 2:56:20 pm

Latest Report: Jul 21, 2017 at 2:20 pm


Visibility: N/A

Pressure: 29.95 "Hg

Humidity: 94%

Dew Point: 54 °F

Location of SandnesLocation

Past Weather in Sandnes — Graph

°F

Sandnes Temperature Yesterday

Maximum temperature yesterday: 77 °F (at 3:20 pm)
Minimum temperature yesterday: 50 °F (at 4:50 am)
Average temperature yesterday: 67 °F

High & Low Weather Summary for the Past Weeks

 TemperatureHumidityPressure
High77 °F (Jul 20, 3:20 pm)100% (Jul 7, 3:20 pm)30.15 "Hg (Jul 7, 3:20 pm)
Low48 °F (Jul 9, 12:50 am)31% (Jul 20, 5:50 pm)29.65 "Hg (Jul 11, 10:20 am)
Average56 °F80%29.91 "Hg
* Reported Jul 6 12:20 pm — Jul 21 12:50 pm, Sandnes. Weather by CustomWeather, © 2017

Note: Actual official high and low records may vary slightly from our data, if they occured in-between our weather recording intervals... More about our weather records

Advertising

Sandnes Weather History for the Previous 24 Hours

Scroll right to see more
 ConditionsComfort  
Time TempWeatherWind HumidityBarometerVisibility
12:50 pm
Fri, Jul 21
55 °FDrizzle. Partly sunny.8 mph100%29.92 "Hg4 mi
12:20 pm57 °FDrizzle. Partly sunny.8 mph94%29.92 "Hg2 mi
11:50 am57 °FDrizzle. Broken clouds.8 mph94%29.89 "Hg4 mi
11:20 am57 °FDrizzle. Broken clouds.7 mph94%29.89 "Hg6 mi
10:50 am57 °FDrizzle. Partly sunny.6 mph94%29.89 "Hg6 mi
10:20 am57 °FDrizzle. Partly sunny.8 mph94%29.86 "Hg6 mi
9:50 am59 °FDrizzle. Broken clouds.9 mph94%29.86 "HgN/A
9:20 am61 °FScattered showers. Partly sunny.7 mph88%29.83 "HgN/A
8:50 am61 °FScattered showers. Partly sunny.7 mph88%29.83 "HgN/A
8:20 am61 °FPartly sunny.7 mph88%29.80 "HgN/A
7:50 am61 °FDrizzle. Partly sunny.7 mph83%29.80 "HgN/A
7:20 am63 °FPartly sunny.7 mph77%29.77 "HgN/A
6:50 am63 °FPartly sunny.8 mph77%29.77 "HgN/A
6:20 am61 °FPartly sunny.9 mph83%29.77 "HgN/A
5:50 am61 °FDrizzle. Partly sunny.10 mph77%29.74 "HgN/A
4:50 am61 °FRain. Passing clouds.12 mph77%29.74 "HgN/A
3:50 am63 °FPassing clouds.12 mph73%29.74 "HgN/A
3:20 am63 °FPassing clouds.14 mph73%29.74 "HgN/A
2:50 am61 °FPassing clouds.10 mph83%29.74 "HgN/A
1:50 am59 °FPartly cloudy.2 mph88%29.74 "HgN/A
12:50 am59 °FPartly cloudy.No wind82%29.74 "HgN/A
12:20 am59 °FPassing clouds.2 mph82%29.74 "HgN/A
11:50 pm
Thu, Jul 20
59 °FLight rain. Partly cloudy.2 mph82%29.74 "HgN/A
11:20 pm59 °FLight rain. Passing clouds.5 mph88%29.77 "HgN/A
10:50 pm61 °FLight rain. Passing clouds.No wind77%29.77 "HgN/A
10:20 pm61 °FLight rain. Broken clouds.3 mph77%29.77 "HgN/A
9:50 pm64 °FLight rain. Broken clouds.15 mph64%29.74 "HgN/A
9:20 pm70 °FBroken clouds.9 mph43%29.74 "HgN/A
8:50 pm72 °FPartly sunny.12 mph41%29.74 "HgN/A
7:50 pm73 °FScattered clouds.13 mph36%29.74 "HgN/A
7:20 pm73 °FPartly sunny.9 mph36%29.74 "HgN/A
6:50 pm73 °FPassing clouds.13 mph36%29.71 "HgN/A
6:20 pm75 °FPassing clouds.10 mph31%29.71 "HgN/A
5:50 pm75 °FScattered clouds.15 mph31%29.71 "HgN/A
5:20 pm75 °FSunny.16 mph36%29.74 "Hg10 mi
4:50 pm77 °FPassing clouds.15 mph32%29.74 "HgN/A
4:20 pm77 °FPassing clouds.14 mph36%29.74 "HgN/A
3:50 pm75 °FPassing clouds.15 mph34%29.74 "HgN/A
3:20 pm77 °FSunny.15 mph32%29.74 "Hg10 mi
2:50 pm75 °FSunny.14 mph36%29.77 "Hg10 mi
Weather by CustomWeather, © 2017

See weather overviewHow to use our weather pages